Preview of NWS' New Version of Forecast
This preview is not operational and should not be used for support decisions.

Regional Weather Roundup (RWR)

Issued by National Weather Service (NWS)

                            
000
ASUS44 KMEG 201900
RWRTN 
TENNESSEE HOURLY STATE WEATHER ROUNDUP
NATIONAL WEATHER SERVICE MEMPHIS TN
200 PM CDT WED MAR 20 2019

TNZ002-004-019-021-049-052-054-088>092-202000-
WEST TENNESSEE
  
CITY           SKY/WX    TMP DP  RH WIND       PRES   REMARKS
MEMPHIS INTL   CLOUDY    62  30  29 W12G22    30.16F                  
JACKSON        PTSUNNY   64  30  27 W10       30.14F                  
DYERSBURG      PTSUNNY   60  31  33 SW13      30.15F                  
$$

TNZ008-025-027-028-033-062-065-066-202000-
NORTH MIDDLE TENNESSEE
  
CITY           SKY/WX    TMP DP  RH WIND       PRES   REMARKS
NASHVILLE      PTSUNNY   64  19  17 S10       30.14F                  
CLARKSVILLE    FAIR      63  21  20 S16G22    30.12F                  
SMYRNA         FAIR      64  27  24 S8        30.15F                  
CROSSVILLE     FAIR      57  22  25 VRB5      30.14F                  
$$

TNZ061-075-076-078-094-096-097-202000-
SOUTH MIDDLE TENNESSEE
  
CITY           SKY/WX    TMP DP  RH WIND       PRES   REMARKS
FAYETTEVILLE   SUNNY     61  27  27 S12G17    30.17F                  
$$

TNZ017-018-042-046-047-202000-
NORTHEAST TENNESSEE
  
CITY           SKY/WX    TMP DP  RH WIND       PRES   REMARKS
TRI CITIES     FAIR      57  22  25 VRB3      30.15F                  
$$

TNZ012-013-036-069-073-074-202000-
CENTRAL EAST TENNESSEE
  
CITY           SKY/WX    TMP DP  RH WIND       PRES   REMARKS
KNOXVILLE      FAIR      60  25  26 W8        30.15F                  
OAK RIDGE      FAIR      60  23  24 S6        30.17F                  
$$

TNZ083-085-099-202000-
SOUTHEAST TENNESSEE
  
CITY           SKY/WX    TMP DP  RH WIND       PRES   REMARKS
CHATTANOOGA    FAIR      61  20  20 W6        30.17F                  
$$

SKY/WX REPORTED AS FAIR MEANS FEW OR NO CLOUDS BELOW
12 THOUSAND FEET.